Flag for Norway Weather past 2 weeks in Drammen, Norway

41 °F

Passing clouds.

Feels Like: 29 °F
Forecast: 28 / 38 °F
Wind: 32 mph from West

Location: Oslo / Fornebu

Current Time: Nov 28, 2015 at 1:37:28 AM

Latest Report: Nov 28, 2015 at 12:50 AM

Visibility: N/A

Pressure: 29.12 "Hg

Humidity: 70%

Dew point: 32 °F

Location of DrammenLocation

Historic Weather in Drammen — Graph


Drammen temperature yesterday

Maximum temperature yesterday: 52 °F (at 6:50 AM)
Minimum temperature yesterday: 41 °F (at 8:50 PM)
Average temperature yesterday: 47 °F

Past Weeks' High & Low Weather Summary

High52 °F (Nov 13, 12:20 AM)100% (Nov 16, 7:50 AM)30.01 "Hg (Nov 16, 7:50 AM)
Low32 °F (Nov 21, 2:20 AM)42% (Nov 27, 9:50 PM)28.74 "Hg (Nov 17, 7:50 AM)
Average45 °F75%29.39 "Hg
* Reported Nov 12 11:20 PM — Nov 27 11:50 PM, Drammen, Weather by CustomWeather, © 2015

Note: Actual official high and low records may vary slightly from our data, if they occured in-between our weather recording intervals... More about our weather records


Drammen weather history for previous 24 hours

Time TempWeatherWind HumidityBarometerVisibility
11:50 PM
Fri, Nov 27
41 °FPassing clouds.32 mph76%29.15 "HgN/A
11:20 PM41 °FPartly cloudy.30 mph66%29.15 "HgN/A
10:50 PM41 °FPassing clouds.37 mph70%29.15 "HgN/A
10:20 PM45 °FPartly cloudy.31 mph53%29.15 "HgN/A
9:50 PM45 °FPartly cloudy.35 mph42%29.15 "HgN/A
9:20 PM43 °FPartly cloudy.30 mph61%29.15 "HgN/A
8:50 PM41 °FLight rain. Passing clouds.33 mph76%29.18 "Hg4 mi
8:20 PM45 °FPassing clouds.28 mph57%29.15 "HgN/A
7:50 PM45 °FPassing clouds.30 mph53%29.15 "HgN/A
7:20 PM43 °FPassing clouds.29 mph71%29.15 "HgN/A
6:50 PM45 °FPassing clouds.28 mph61%29.15 "HgN/A
6:20 PM45 °FPassing clouds.33 mph61%29.12 "HgN/A
5:50 PM45 °FPassing clouds.36 mph61%29.12 "HgN/A
5:20 PM45 °FPassing clouds.37 mph61%29.12 "HgN/A
4:50 PM45 °FPartly cloudy.36 mph76%29.12 "HgN/A
4:20 PM45 °FPassing clouds.35 mph81%29.09 "HgN/A
3:50 PM45 °FPassing clouds.37 mph87%29.09 "HgN/A
3:20 PM45 °FSprinkles. Partly sunny.35 mph93%29.09 "HgN/A
2:50 PM45 °FSprinkles. Broken clouds.37 mph93%29.09 "HgN/A
2:20 PM46 °FSprinkles. Overcast.39 mph93%29.06 "Hg3 mi
1:50 PM48 °FSprinkles. Partly sunny.38 mph87%29.06 "HgN/A
1:20 PM48 °FLight rain. Overcast.37 mph87%29.06 "HgN/A
12:50 PM48 °FLight rain. Partly sunny.35 mph94%29.06 "Hg4 mi
12:20 PM48 °FLight rain. Fog.37 mph94%29.06 "Hg3 mi
11:50 AM50 °FLight rain. Fog.47 mph100%29.03 "Hg1 mi
11:20 AM50 °FLight rain. Fog.48 mph100%29.06 "Hg2 mi
10:50 AM50 °FLight rain. Fog.48 mph100%29.06 "Hg1 mi
10:20 AM50 °FLight rain. Fog.50 mph100%29.06 "Hg1 mi
9:50 AM50 °FLight rain. Fog.52 mph100%29.09 "Hg1 mi
9:20 AM50 °FDrizzle. Fog.52 mph100%29.09 "Hg2 mi
8:50 AM50 °FLight rain. Fog.48 mph100%29.09 "Hg3 mi
8:20 AM50 °FLight rain. Low clouds.50 mph100%29.12 "Hg3 mi
7:50 AM50 °FLight rain. Fog.51 mph100%29.12 "Hg1 mi
7:20 AM50 °FLight rain. Fog.50 mph100%29.12 "Hg2 mi
6:50 AM52 °FLight rain. Fog.48 mph94%29.15 "Hg3 mi
6:20 AM50 °FLight rain. Fog.48 mph100%29.18 "Hg2 mi
5:50 AM50 °FLow clouds.47 mph100%29.18 "HgN/A
4:50 AM50 °FLight rain. Low clouds.48 mph100%29.21 "Hg4 mi
4:20 AM50 °FLight rain. Low clouds.47 mph100%29.24 "Hg3 mi
3:50 AM50 °FLight rain. Passing clouds.43 mph100%29.27 "Hg3 mi
3:20 AM50 °FSprinkles. Fog.44 mph100%29.30 "Hg2 mi
2:50 AM50 °FPassing clouds.38 mph100%29.33 "HgN/A
2:20 AM50 °FSprinkles. Passing clouds.36 mph100%29.33 "HgN/A
1:50 AM50 °FSprinkles. Passing clouds.36 mph100%29.33 "HgN/A
1:20 AM50 °FSprinkles. Passing clouds.35 mph100%29.36 "Hg3 mi
Weather by CustomWeather, © 2015

See weather overviewHow to use our weather pages